COSMOS 2251 DEB, 34452

Orbit data source: Space-Track

COSMOS 2251 DEB, 34452 is space debris in LEO originally from a launch on Wed, 16 Jun 1993 UTC launched from the Plesetsk Missile And Space Complex (PKMTR). The debris from Iridium 33, an American commercial communications satellite, has been tracked extensively since its accidental collision with the defunct Russian satellite Cosmos 2251 in 2009. This event, occurring at high speed in low Earth orbit (LEO), generated thousands of pieces of space debris, significantly increasing the risk of further collisions. The Iridium 33 debris cloud has impacted space traffic management and orbital debris mitigation strategies, making it a subject of ongoing study in space situational awareness.

Loading next visibility...
Identifier
34452, 1993-036SV
Orbit
LEO
Country
Flag of CISCIS
Related business
Manufacturer
Unknown
Mission
Spacecraft
Bus & Motor
Unknown
Mass
Unknown
Launch date (UTC)
1993-06-16 (33 years ago)
Launch vehicle
Unknown
Launch site
Plesetsk Missile And Space Complex (PKMTR)
Object type
Payload
Rocket body
Debris
Shape & HBR
Unknown shape, 0.1 m
Radar Cross Section
Small (<0.1 m²)

Expand to show TLE details & history
Last TLE update: 11 hours ago

TLE from 11 hours ago
0 COSMOS 2251 DEB
1 34452U 93036SV  26145.32287891  .00010894  00000-0  52808-3 0  9995
2 34452  74.0253 202.5546 0058888 237.2995 122.2514 15.17036078931399
Epoch: 2026-05-25T07:44Z
TLE epoch observation values (Epoch: 2026-05-25T07:44:56.737Z)
Latitude
-0.00012°
Longitude
-156.59416°
Altitude
539.347 km
Speed
7.581 km/s
True Right ascension
13h 30m 13s
True Declination
0° 00' 00"
Sunlit
Object was in full shadow at epoch
Visualization orbit readout
Latitude
Unknown
Longitude
Unknown
Altitude
Unknown
Speed
Unknown
Apparent Right ascension
Unknown
Apparent Declination
Unknown
Sunlit
N/A
Visualization observer readout
Local Sidereal Time
04:05:41
Azimuth
Unknown
Elevation
Unknown
Doppler factor
Unknown
Orbital elements
Apogee altitude
552.917 km
Perigee altitude
471.763 km
Semi-major axis
6,890.477 km
Eccentricity
0.00589
Inclination
74.0253°
RAAN
202.5546°
Arg. of periapsis
237.2995°
True anomaly
122.81985°
Mean anomaly
122.2514°
Eccentric anomaly
122.53585°
Mean motion
3.79463 °/min
Orbital period
94.87 mins
BSTAR
0.00052808

Documentation

Showing up to 5 results
|